Wind_Speed
26 27 27 28 28 27 26 25 24 23 22 20 19 17 16 15 15 16 16 16 17 17 18 19 20 20 20 21 21 20 20 20 19 19 19 19 19 19 20 20 19 18 16 14 12 10 6 7 10 11 10 11 11 11 11 11 10 7 6 6 6 6 6 7 7 8 9 9 10 11 11 11 11 11 11 11 11 11 10 10 10 9 8 6 6
26 27 27 28 28 28 27 26 26 25 24 22 21 19 17 16 14 14 14 13 13 13 14 14 15 16 16 17 17 17 17 17 17 17 17 17 18 18 19 20 20 20 19 18 16 14 12 7 5 10 11 11 11 12 12 12 13 11 9 8 8 7 6 6 7 8 9 9 10 10 11 11 12 13 12 13 13 13 12 12 11 11 10 9 8
27 27 28 28 28 28 28 28 28 27 26 25 24 22 20 19 17 17 16 14 13 12 11 11 12 12 13 13 13 13 13 13 13 13 14 15 16 16 17 18 19 19 19 19 19 17 15 13 8 4 9 11 12 13 13 14 15 15 14 12 11 10 10 9 8 8 9 9 10 10 11 11 12 12 13 13 13 13 14 13 13 12 12 11 10
26 27 28 28 29 29 29 30 30 30 29 28 27 26 24 23 22 21 20 19 17 15 13 12 12 12 12 12 12 11 11 11 10 11 11 12 13 14 15 16 16 17 18 18 19 18 17 16 13 9 5 8 12 13 13 14 16 17 17 17 16 16 15 14 13 12 11 10 10 11 11 12 12 12 12 12 13 13 14 14 14 13 13 12 12
26 27 28 29 29 30 30 30 31 31 30 30 29 29 27 26 24 23 23 22 21 20 18 16 15 14 13 13 12 12 12 11 11 11 11 11 11 12 12 13 14 15 16 16 17 17 17 16 15 13 11 7 7 11 13 15 16 17 19 19 20 20 19 18 18 16 16 15 14 13 12 12 12 12 12 13 13 13 14 14 14 14 14 13 13
25 26 27 28 29 30 30 30 31 31 31 31 31 31 30 29 28 26 25 24 24 22 21 20 18 17 16 15 15 14 14 14 13 14 14 13 13 12 12 12 13 14 14 14 15 15 15 16 15 14 12 10 8 7 10 14 17 18 19 20 21 21 21 21 21 21 20 19 18 17 16 15 14 13 13 13 14 14 14 14 15 15 15 14 14
25 26 26 27 28 29 29 30 31 32 32 32 32 32 32 31 31 30 29 28 26 25 23 22 21 20 20 19 18 17 17 17 17 17 17 16 16 15 15 14 13 13 14 14 14 14 14 14 14 14 13 11 10 8 8 10 13 16 18 20 21 21 22 23 23 24 24 23 22 22 21 20 19 17 16 15 15 16 16 15 15 15 16 16 16
24 25 26 26 27 28 29 29 31 32 32 32 33 33 33 33 32 32 31 30 28 27 25 24 23 23 22 22 21 20 19 19 19 19 19 19 18 17 17 17 15 14 14 14 14 14 14 13 13 13 13 12 11 10 9 9 9 11 14 17 19 21 22 22 23 24 26 27 26 25 24 24 23 22 20 19 19 19 19 18 17 16 16 16 16
24 25 25 26 27 27 28 29 30 31 32 32 32 33 33 33 33 32 31 30 29 28 26 25 24 24 23 23 22 22 21 20 19 20 20 20 20 19 18 17 17 16 15 15 14 14 15 14 14 13 13 13 12 11 10 10 9 9 11 13 16 18 20 22 23 23 24 27 29 28 27 27 26 24 23 23 23 23 23 22 20 18 17 17 16
24 25 25 26 26 27 27 28 29 30 31 31 32 32 33 33 32 31 31 30 30 29 27 26 25 25 24 24 24 23 23 21 20 20 21 21 22 22 20 19 18 17 16 16 15 14 14 14 14 14 14 14 13 12 11 11 11 10 10 11 13 14 16 19 21 23 23 24 27 28 28 29 28 26 25 25 25 25 25 24 23 21 20 19 18
24 24 25 25 26 27 28 29 30 30 30 31 32 32 33 33 32 31 31 31 30 29 28 27 27 26 25 25 25 24 24 22 20 20 20 21 23 23 22 22 21 20 18 17 16 15 14 13 13 13 14 15 16 15 14 13 12 11 11 11 11 12 14 15 17 20 22 23 23 25 27 28 30 29 28 28 28 27 26 25 25 24 22 22 21
23 24 24 25 26 27 28 29 30 31 31 31 32 32 33 32 32 32 32 31 31 30 30 30 28 27 26 25 25 25 24 23 22 20 20 21 23 23 23 23 24 23 22 19 17 16 14 14 14 13 13 14 15 17 17 16 14 13 12 11 11 12 13 14 15 17 19 19 20 22 24 26 28 31 32 32 31 30 29 28 27 26 25 25 24
22 23 24 25 26 27 28 30 31 31 32 32 33 33 33 33 33 33 33 32 32 32 31 30 30 29 28 27 26 26 25 25 23 22 21 21 22 23 24 25 26 26 25 23 21 19 16 14 14 14 13 13 14 15 17 19 19 17 15 13 13 13 13 14 15 16 17 18 19 21 23 24 25 28 30 32 33 34 34 32 31 30 28 28 27
21 22 23 24 25 27 28 30 30 31 32 32 33 33 32 33 33 33 32 32 32 31 31 31 31 30 30 29 28 27 27 27 26 24 23 23 23 24 25 27 29 29 28 27 24 22 19 15 14 13 13 13 14 15 16 17 19 20 20 19 17 15 15 15 16 16 17 19 20 21 23 24 25 25 25 28 31 34 37 37 35 34 33 32 30
20 21 22 23 25 26 28 29 30 30 31 31 31 32 32 32 32 32 32 32 32 31 31 32 32 31 30 30 29 28 28 28 28 27 26 25 25 26 27 29 31 32 31 30 28 24 20 17 15 14 13 13 14 15 16 17 18 20 21 22 22 20 18 17 18 18 18 19 20 21 22 23 24 25 26 26 28 31 34 37 37 37 37 36 33
18 20 21 22 24 25 27 28 28 29 29 30 30 30 31 31 32 32 32 32 32 32 32 32 33 32 31 30 30 29 29 29 29 29 28 27 27 27 28 29 31 32 33 32 30 25 21 18 16 15 15 15 16 16 17 18 18 20 21 22 24 25 24 22 21 20 20 21 21 21 22 23 24 25 26 27 27 27 29 31 34 36 38 39 37
17 18 20 21 22 24 25 26 27 27 28 28 29 29 29 30 31 31 31 32 32 32 33 33 33 33 32 32 31 31 30 30 30 29 29 28 28 28 29 29 30 32 33 33 30 24 20 18 17 18 18 19 19 19 19 19 19 20 21 22 24 26 27 27 25 23 23 22 23 23 23 24 25 25 25 26 27 27 27 27 29 31 34 37 39
16 17 18 20 21 23 24 24 25 26 26 27 27 28 28 28 29 30 31 31 32 32 32 32 33 33 33 33 32 32 32 31 31 30 29 29 28 28 29 29 29 30 32 32 29 23 19 17 18 19 20 21 22 22 23 23 23 22 21 22 23 25 27 28 29 28 26 25 24 25 25 25 26 26 27 27 28 28 28 28 28 28 30 32 35
15 16 17 19 20 21 22 23 24 25 25 26 26 27 27 27 28 29 30 31 32 32 32 32 32 32 33 33 33 33 33 32 32 31 30 30 29 29 29 29 29 30 31 31 29 24 20 20 20 22 23 24 25 25 25 26 26 25 25 25 25 26 27 28 30 30 30 28 27 26 26 27 27 28 29 30 31 31 31 30 30 30 30 30 31
14 15 17 18 19 20 21 22 23 24 25 26 26 26 26 27 27 29 30 31 32 32 32 31 31 31 32 33 33 33 33 32 32 32 32 32 32 31 31 31 31 31 31 30 28 25 23 23 25 27 28 28 28 28 27 27 28 28 28 28 28 28 28 28 30 31 32 32 31 30 30 29 30 30 31 32 33 34 34 34 33 33 32 32 32
13 15 16 17 18 19 20 21 22 24 25 26 26 26 26 26 27 28 29 30 31 31 32 31 31 32 32 33 34 34 34 32 32 32 33 33 34 33 33 33 32 32 32 31 29 27 26 26 28 29 31 31 31 30 30 29 29 29 30 30 31 30 30 29 29 31 33 34 35 35 34 33 33 33 33 33 34 34 35 36 36 36 36 36 35
12 14 15 16 18 18 19 21 22 23 25 26 27 26 26 26 26 28 29 30 31 32 32 33 33 33 34 35 36 36 35 33 31 33 35 36 36 35 34 34 34 33 33 33 32 31 30 30 30 31 32 33 33 32 32 31 30 30 31 31 31 30 30 30 30 30 31 32 34 36 37 37 36 36 36 36 36 35 35 36 37 38 38 39 39
12 14 15 16 17 18 19 20 21 22 24 26 27 26 26 26 27 28 30 31 32 33 34 34 34 34 35 36 36 36 37 35 34 35 37 38 38 37 36 35 35 35 34 34 34 34 33 33 33 33 34 34 34 33 33 32 32 32 32 32 31 31 30 30 30 30 29 30 30 32 34 35 36 36 37 37 37 37 36 37 38 39 40 42 43
12 13 15 16 17 18 19 20 21 22 24 26 27 26 26 27 28 30 31 32 33 34 35 35 35 35 36 37 37 36 38 39 38 38 38 38 38 38 38 37 36 36 36 36 36 36 36 36 36 36 36 36 36 36 35 34 34 33 33 33 33 33 33 32 32 32 31 31 32 32 33 34 36 37 37 37 38 38 39 40 40 42 43 44 46
13 14 15 16 17 18 19 20 21 22 23 25 26 26 27 28 29 31 32 33 35 36 36 37 37 37 37 38 38 38 39 41 42 42 41 41 40 39 39 38 38 38 38 38 38 39 39 39 39 39 40 39 39 39 38 37 36 35 34 34 34 34 35 35 35 35 35 36 36 37 38 39 40 40 40 40 41 42 43 43 43 44 44 44 45
14 15 16 17 17 18 19 20 21 23 23 24 26 27 28 29 30 32 33 35 36 37 38 38 39 39 38 39 40 41 41 43 44 45 45 45 44 42 41 41 41 41 41 41 41 41 42 42 43 42 42 42 41 41 40 39 38 36 35 34 34 34 35 36 37 38 38 39 40 40 41 42 41 40 41 42 43 44 44 44 44 43 42 41 41
17 17 18 18 19 19 20 21 22 23 24 25 26 27 29 30 31 33 35 36 37 38 39 40 41 42 41 40 41 44 45 45 46 47 47 47 47 46 44 44 44 44 44 44 44 44 44 45 46 45 44 43 42 41 40 39 38 36 34 34 33 33 35 38 40 41 41 41 42 42 42 42 40 38 38 40 41 42 42 41 41 40 40 40 40
19 20 20 21 21 21 22 23 24 24 25 26 27 29 30 31 32 34 37 38 39 39 40 42 43 44 44 42 43 46 48 48 48 49 49 49 49 48 47 46 46 47 47 47 47 46 46 47 48 48 47 44 42 40 39 37 35 35 33 32 30 32 36 41 43 43 43 42 42 42 42 41 40 37 36 38 38 38 38 38 38 39 39 40 41
22 22 23 23 23 24 24 25 25 26 26 27 29 30 31 31 33 35 38 39 40 41 42 44 45 46 46 46 46 48 49 49 50 51 52 52 52 51 49 49 49 49 49 49 48 48 47 48 49 48 46 43 40 38 38 36 34 31 30 28 29 34 42 47 46 43 42 42 42 42 41 41 40 37 36 38 38 38 38 38 38 39 40 41 42
24 25 26 26 26 26 26 27 27 28 28 29 30 31 31 32 34 36 39 41 41 42 43 45 47 49 49 49 50 50 51 51 52 53 54 54 54 53 52 52 52 51 51 50 50 49 49 49 48 47 44 41 39 38 38 37 33 29 27 26 31 40 48 49 44 40 40 41 41 40 40 39 39 39 39 40 41 40 40 40 40 40 41 42 42
27 28 28 28 27 27 28 28 29 29 30 30 31 31 32 33 35 37 40 42 42 43 45 47 49 50 52 52 53 53 53 53 54 55 56 56 55 54 54 54 54 53 52 51 50 50 49 48 46 44 43 41 40 39 38 37 35 32 29 30 37 45 45 42 39 39 39 39 39 39 39 38 38 39 40 42 44 44 43 43 44 45 45 46 45
29 30 30 30 29 29 30 30 30 31 31 32 32 32 33 34 36 39 41 43 44 45 47 49 51 52 54 55 55 55 55 55 55 57 58 57 55 54 54 55 55 54 52 52 51 51 49 47 45 44 43 42 41 41 39 37 36 34 33 37 41 39 35 35 38 40 41 41 40 39 39 39 40 41 43 44 46 47 48 48 50 51 51 50 49
30 31 31 31 31 31 31 32 32 33 33 34 34 33 34 35 38 40 43 44 45 47 49 51 52 53 55 57 57 57 56 56 56 57 57 56 55 54 55 55 55 54 53 52 51 51 49 48 48 48 48 46 44 43 41 39 38 38 37 37 34 30 31 38 43 45 45 45 44 42 41 42 43 44 46 47 48 49 50 51 52 53 52 52 52
30 31 32 32 33 33 34 34 34 35 36 36 36 35 35 36 40 42 44 45 46 49 51 53 54 55 56 58 59 58 57 56 57 57 56 55 54 54 56 56 55 53 52 51 50 50 49 50 50 51 52 50 46 43 41 40 37 34 31 27 26 29 38 49 56 57 55 52 49 45 44 44 45 46 47 47 48 49 50 51 52 53 53 53 53
31 32 33 34 35 35 36 36 37 37 38 38 38 36 36 38 41 44 45 46 47 50 52 54 55 56 57 59 60 59 57 56 57 56 55 53 53 55 57 57 55 54 52 51 50 50 50 51 52 53 52 50 46 43 40 36 29 24 23 24 29 41 52 60 65 64 60 57 53 49 46 46 46 47 48 48 48 49 50 51 52 53 54 54 54
32 33 34 36 36 36 37 38 39 39 40 40 39 37 38 39 42 45 46 47 49 51 53 55 56 57 59 60 61 60 57 56 57 56 52 49 51 55 57 58 58 56 53 52 52 53 52 52 52 51 49 46 44 40 37 35 30 25 27 34 43 53 60 64 64 63 61 59 56 52 49 47 47 48 48 49 50 49 49 50 51 53 54 54 55
34 35 36 37 38 38 39 40 40 40 41 41 40 39 40 42 44 46 47 48 50 52 53 55 57 59 60 61 61 60 57 56 57 54 48 47 51 55 58 61 61 58 54 53 54 56 55 53 50 48 45 42 39 37 36 36 33 32 41 52 57 60 62 62 62 61 61 60 58 55 52 48 46 47 47 49 50 51 51 51 52 53 54 56 58
36 37 38 38 39 39 40 41 41 41 42 42 41 42 43 45 47 47 48 49 51 52 54 55 57 59 61 62 62 60 58 57 55 49 43 45 52 55 58 63 64 60 55 53 55 57 57 54 49 45 41 39 38 38 39 39 37 41 54 63 64 66 66 66 65 64 63 63 62 59 55 49 46 45 45 47 50 51 52 53 53 54 56 59 61
38 39 39 40 40 41 42 42 42 43 44 44 44 45 45 47 48 48 49 51 51 53 54 56 58 60 61 62 63 62 59 55 49 41 39 46 53 56 59 64 66 62 55 53 54 56 57 54 48 44 41 40 39 37 39 41 42 49 60 66 68 70 70 69 70 69 68 67 66 63 59 54 49 46 46 47 48 50 53 54 55 57 59 62 65
40 40 41 42 42 43 44 44 44 45 46 46 46 47 47 48 49 51 51 51 52 53 54 56 59 60 62 64 63 59 53 47 41 36 39 48 55 58 60 64 68 64 56 52 54 56 57 54 48 44 41 40 39 38 41 46 50 56 64 70 73 74 72 72 74 73 72 70 69 66 62 57 53 50 49 49 49 50 52 55 57 60 63 65 66
42 42 43 44 45 46 46 46 45 46 47 47 48 49 50 50 51 52 53 52 53 53 55 57 59 62 64 62 56 48 42 39 39 39 43 50 56 60 61 64 68 66 58 53 53 55 57 55 50 47 43 42 42 42 47 55 60 64 70 74 76 77 76 76 77 76 75 74 71 69 65 59 54 52 51 51 52 52 54 56 58 60 63 64 66
45 45 46 47 48 49 49 48 47 48 49 49 50 51 52 52 52 53 54 54 53 54 55 57 59 62 62 54 44 36 34 38 42 44 47 51 56 60 61 63 68 68 59 53 52 53 57 56 52 50 47 44 43 44 51 60 65 67 71 75 77 78 79 79 80 80 78 76 74 71 69 63 53 50 51 52 53 54 56 58 59 61 63 65 66
47 47 48 50 51 52 51 50 50 51 51 51 52 54 54 54 54 55 55 55 54 55 55 56 58 60 54 43 34 30 34 39 41 42 47 52 55 58 59 61 67 68 60 53 51 53 56 56 54 54 51 46 45 50 58 63 66 68 71 74 77 79 79 80 83 84 83 80 77 74 72 67 56 50 51 51 52 55 57 59 62 63 65 67 68
49 49 51 52 54 54 54 53 53 54 54 53 55 56 56 57 57 56 56 56 55 55 56 56 56 54 44 34 31 32 34 35 35 40 50 55 54 55 57 61 66 67 60 54 52 53 55 55 55 57 55 51 53 58 63 65 67 70 72 76 79 81 82 83 86 88 87 85 82 77 74 71 63 56 57 57 55 55 57 60 61 63 65 67 69
52 52 53 55 56 57 57 56 56 56 56 56 57 58 59 60 60 58 58 58 57 56 57 56 55 51 42 37 37 36 35 36 41 49 56 55 52 53 57 62 65 64 59 55 53 54 56 55 56 58 58 57 60 63 65 68 70 73 76 80 84 86 86 87 89 89 87 85 84 80 76 73 67 62 63 63 61 60 61 61 61 61 62 63 64
56 55 56 57 58 60 60 60 59 59 59 59 60 60 61 63 64 61 60 60 59 58 58 58 57 52 46 43 43 44 45 48 52 53 50 49 52 55 59 62 63 61 58 55 54 55 57 57 57 60 62 63 65 67 70 72 74 77 80 84 88 90 90 91 92 91 89 88 86 82 77 74 69 64 64 66 66 66 67 66 64 63 62 62 63
60 59 59 59 61 63 63 62 62 62 62 62 62 62 63 65 66 66 64 62 61 60 60 61 60 56 51 48 48 51 53 52 50 48 48 53 57 56 58 60 60 58 56 55 54 55 57 58 59 63 66 67 69 71 72 74 76 79 81 86 90 92 92 94 95 94 92 91 89 84 78 74 70 66 66 67 68 69 70 70 69 69 69 69 69
63 63 63 63 65 66 66 65 65 65 65 65 65 65 66 67 68 69 68 65 64 63 62 62 62 59 55 54 53 52 50 48 49 51 55 56 55 54 57 59 57 57 57 55 54 54 56 58 60 65 67 68 70 72 73 75 78 81 83 87 91 93 93 95 96 95 95 94 93 88 81 76 73 69 68 69 69 71 73 73 73 73 73 73 72
66 66 67 67 68 69 68 68 68 69 69 68 67 68 68 69 70 72 72 69 67 67 65 64 65 62 57 55 54 52 51 51 53 53 52 51 52 55 57 57 56 58 57 55 54 54 55 58 61 64 67 69 71 72 74 77 80 82 86 89 93 95 96 97 98 98 97 96 94 89 83 79 76 73 70 70 71 73 74 75 74 74 73 72 71
69 70 70 71 71 71 72 72 72 72 71 70 70 70 71 71 72 73 73 71 70 69 67 66 68 64 55 52 53 52 50 51 52 49 46 48 52 55 55 55 57 58 57 56 56 55 56 59 63 65 68 71 73 74 76 79 81 84 87 92 96 99 100 101 101 101 99 98 94 89 83 79 76 73 71 70 70 73 74 74 74 74 72 70 69
72 73 73 73 74 74 75 75 75 74 74 73 73 73 73 73 74 75 75 73 72 71 69 68 67 62 54 51 51 49 47 50 49 46 44 47 51 54 54 55 56 57 56 57 56 55 57 61 64 67 71 73 74 76 78 81 83 86 89 94 98 101 102 103 104 102 101 98 94 87 81 77 74 71 69 67 67 69 72 72 73 72 70 68 66
Wind_Direction
47 46 46 46 46 46 45 44 43 43 42 41 40 40 41 40 39 38 37 36 37 37 35 33 32 31 32 32 30 31 33 35 35 36 36 35 32 26 23 23 22 23 23 23 22 14 338 272 247 243 250 255 251 252 251 244 240 234 225 225 227 228 231 235 241 244 244 245 247 251 257 262 266 269 273 277 282 287 293 298 302 308 309 306 306
47 47 46 46 46 46 44 43 43 43 42 41 39 38 37 36 33 31 31 31 33 34 34 32 30 27 28 30 29 27 27 27 26 26 28 29 30 26 23 21 19 17 16 16 18 21 18 358 282 246 244 253 251 247 249 246 240 232 222 218 221 223 226 234 241 247 249 247 247 249 252 256 261 265 269 272 276 280 283 287 291 294 299 300 299
49 48 47 47 47 46 45 44 44 44 43 42 41 40 38 36 33 30 28 29 28 26 24 21 21 19 19 21 24 25 25 24 20 18 19 20 21 19 18 17 16 15 14 12 12 13 16 17 9 301 252 252 253 248 249 250 245 239 232 228 232 233 236 241 246 249 250 251 250 249 250 252 256 260 263 267 270 274 277 279 282 284 288 291 294
50 49 49 48 48 48 46 45 45 45 44 43 42 41 40 39 36 34 31 30 28 24 20 14 11 9 9 10 13 15 17 19 15 12 14 15 14 11 10 10 9 9 10 11 11 11 9 9 13 10 330 269 257 253 252 253 252 248 242 239 241 243 245 248 249 249 250 252 255 254 251 249 251 255 258 261 264 267 270 273 275 276 278 282 285
51 50 49 48 48 48 47 46 46 46 45 44 43 42 41 39 37 35 34 33 31 28 24 20 16 11 8 5 4 5 6 7 7 5 7 9 9 7 5 4 2 1 3 4 6 9 8 5 5 7 6 346 293 267 257 255 255 254 248 245 246 247 249 252 252 251 251 252 255 258 259 254 252 254 257 260 261 262 265 269 271 273 274 274 277
52 50 49 48 48 47 46 46 46 46 45 44 43 41 40 38 37 35 34 34 32 31 28 26 23 21 18 13 7 3 0 359 359 357 357 358 360 359 358 359 358 356 356 355 357 0 3 4 2 360 358 358 348 312 277 263 259 257 255 253 251 248 249 253 255 253 253 253 254 257 259 259 256 255 257 260 263 265 265 267 270 272 274 273 274
51 49 48 47 47 46 45 44 44 44 43 43 42 40 39 37 35 33 32 32 31 31 30 28 26 25 23 21 17 12 6 2 1 359 355 353 353 352 350 350 351 351 350 348 348 349 351 353 354 353 352 347 345 338 317 290 274 267 264 263 259 253 249 250 253 255 255 254 253 254 254 255 255 254 255 258 262 264 265 266 267 269 271 273 274
51 49 47 46 46 45 43 42 42 42 41 40 40 39 38 36 34 32 30 29 28 28 28 27 25 24 22 21 19 17 14 10 8 7 2 357 356 354 350 347 347 345 344 343 342 340 339 339 339 340 341 339 333 328 324 316 303 289 278 272 268 261 254 251 252 253 255 256 255 254 254 254 254 255 255 257 259 261 261 261 262 265 268 270 272
51 49 47 45 45 43 42 41 41 40 39 38 38 38 37 36 34 32 30 28 27 26 24 23 22 21 20 18 16 16 16 13 13 14 10 5 2 0 357 352 349 345 341 338 336 334 331 328 328 327 326 326 325 321 316 310 308 305 296 286 279 272 264 259 256 254 254 255 257 257 256 255 255 255 256 257 259 260 261 260 259 261 265 267 269
50 48 46 45 43 42 41 40 40 39 38 37 36 36 35 34 33 31 30 28 27 25 23 21 20 18 17 15 13 11 11 11 12 14 13 10 7 3 0 356 353 349 344 338 333 330 326 321 318 318 316 315 315 314 312 307 302 301 300 297 293 286 279 272 266 262 259 257 257 257 257 256 255 254 255 256 256 259 262 264 263 262 263 264 263
49 47 45 43 41 40 39 38 38 37 36 35 34 34 33 32 31 29 28 27 25 23 22 21 19 17 15 14 12 9 7 6 6 7 8 7 6 4 1 357 353 351 347 340 334 328 324 320 312 307 305 305 306 306 305 303 300 296 294 293 294 294 291 285 279 273 269 266 263 259 255 254 254 253 253 254 255 256 258 261 264 264 265 265 262
47 45 43 41 39 37 37 37 36 35 33 32 32 31 30 29 28 27 26 24 23 22 20 19 17 16 14 13 11 8 6 4 2 0 359 360 1 2 2 0 357 353 348 342 335 329 324 319 313 304 296 292 294 298 298 299 297 295 292 288 287 289 289 288 286 282 277 273 269 264 259 255 254 253 252 253 254 254 252 252 255 259 260 262 260
45 43 41 39 37 35 35 35 34 33 31 30 29 28 27 26 25 25 24 22 21 20 19 17 15 14 12 10 9 8 6 4 3 359 356 355 355 356 357 358 357 354 351 345 337 330 324 318 313 307 298 289 284 284 288 291 292 292 292 289 285 282 280 279 278 278 277 275 270 268 266 262 258 254 251 250 250 251 251 250 249 251 252 255 257
41 40 40 38 36 34 33 33 33 31 30 28 27 25 23 22 22 22 21 20 19 17 16 16 14 13 10 9 7 6 5 4 3 1 358 354 352 350 349 350 351 350 349 347 341 332 323 316 312 308 303 295 286 280 279 280 283 286 287 288 286 282 279 276 274 272 272 271 270 269 269 266 262 258 252 248 246 248 250 251 249 249 248 249 251
37 36 36 36 34 33 32 32 31 30 29 27 25 23 21 20 19 19 18 18 17 15 14 14 13 11 9 7 6 5 5 3 3 2 360 356 352 348 346 346 346 346 345 344 342 335 325 316 311 310 307 301 293 286 280 276 274 276 278 280 282 282 281 277 274 272 271 269 267 267 266 264 261 259 256 253 248 246 246 247 248 248 247 246 246
34 33 32 33 32 31 31 30 29 27 26 25 24 22 19 18 17 16 15 15 13 13 13 12 10 9 8 6 5 4 4 3 2 1 360 357 353 349 347 346 345 344 343 341 340 336 328 318 312 313 313 309 304 298 292 286 280 275 272 272 273 275 277 277 275 273 271 270 268 265 263 261 260 257 256 255 252 249 245 243 242 243 244 245 244
31 30 29 29 29 29 28 27 25 24 23 23 22 20 18 17 15 14 13 13 12 11 11 9 8 7 6 5 4 3 3 2 1 0 358 356 353 350 348 346 345 344 343 342 339 336 333 326 321 319 319 316 312 309 305 299 293 286 279 273 269 268 269 271 272 271 270 269 269 267 265 262 259 257 255 253 251 249 249 247 243 240 240 241 242
25 26 26 26 26 25 24 23 21 20 20 20 19 18 16 15 14 13 13 12 12 10 9 8 6 5 4 3 2 1 0 360 359 358 356 354 351 349 348 346 345 345 345 344 341 336 334 336 333 330 328 324 319 314 309 306 302 297 291 284 277 271 266 265 265 267 268 267 266 267 267 265 263 260 257 254 252 249 249 249 248 245 242 240 240
20 20 20 21 21 21 21 18 16 15 15 16 15 15 13 12 12 12 11 11 10 9 8 6 4 3 2 1 359 358 358 357 357 356 354 353 350 348 347 347 347 346 346 347 345 338 331 331 331 331 330 328 324 318 312 307 304 301 298 293 286 279 272 265 262 261 263 264 264 264 265 265 264 262 260 257 255 252 250 249 249 249 247 245 243
14 13 14 15 16 17 16 13 11 10 10 10 11 10 9 9 9 9 9 9 8 7 5 4 3 2 1 360 358 357 355 355 354 354 354 353 351 349 347 347 347 346 346 346 345 341 332 326 323 323 323 323 322 319 314 309 306 302 298 294 290 285 279 272 266 261 259 259 260 261 261 261 262 261 261 259 257 255 253 251 250 250 250 249 248
7 7 7 9 11 12 11 9 7 6 6 6 5 4 3 5 7 7 7 6 4 3 2 2 1 0 360 359 357 355 354 353 353 354 355 355 354 351 349 347 346 345 345 344 343 340 333 327 322 320 320 319 320 319 316 311 307 303 299 296 292 288 283 279 275 268 262 259 258 258 258 259 259 259 259 258 257 256 256 255 254 253 252 251 250
360 1 1 2 4 6 6 5 3 3 3 1 359 357 357 360 1 2 1 0 359 358 358 359 359 359 359 358 356 356 355 354 353 353 354 354 354 353 351 348 346 345 344 343 341 339 335 330 325 322 320 319 318 317 315 311 307 303 301 299 296 292 287 283 281 278 271 264 261 260 260 260 260 259 258 258 257 257 257 258 258 257 257 256 255
351 353 354 356 358 359 1 1 0 359 359 359 357 355 354 355 356 355 354 353 353 353 354 355 355 356 357 356 355 356 358 357 354 352 351 351 351 351 351 349 346 345 343 342 340 338 334 330 326 323 320 318 317 315 313 311 308 305 303 303 301 298 292 287 284 282 278 273 269 267 266 265 264 262 260 259 258 258 258 260 261 261 261 260 260
342 344 346 348 350 352 354 355 356 356 356 358 357 355 353 353 351 349 349 350 350 351 351 351 351 352 354 354 354 355 357 357 355 353 352 351 350 349 348 347 346 344 342 341 339 336 333 330 326 323 321 318 316 315 313 312 310 308 307 306 306 304 300 296 292 289 287 285 282 280 278 276 274 269 264 262 261 261 262 263 264 264 264 264 264
331 334 337 340 343 345 347 349 352 352 354 355 354 351 350 348 346 345 346 348 350 351 350 349 349 349 351 353 353 352 353 355 355 354 353 352 350 348 347 346 345 343 341 340 338 335 333 331 328 325 322 320 317 316 314 313 312 310 309 308 307 307 305 302 299 295 292 290 287 285 284 284 282 276 269 266 265 265 265 265 266 267 267 266 265
322 326 328 332 335 338 341 342 345 347 349 350 348 346 346 345 343 343 345 346 348 350 349 348 348 348 348 350 352 352 351 351 352 353 352 351 350 347 346 345 344 343 341 339 337 335 333 331 328 326 323 321 318 317 315 313 311 310 309 307 307 308 308 306 302 297 293 290 287 286 285 285 284 278 271 267 266 266 266 266 266 266 265 264 264
317 320 323 326 330 333 335 337 339 341 344 345 343 341 342 341 341 341 343 344 346 347 347 346 347 348 348 348 350 351 350 349 350 350 350 350 348 347 345 344 343 342 340 339 337 336 334 332 330 327 325 322 319 317 314 311 310 308 307 307 308 312 314 313 308 301 296 292 289 288 288 287 285 280 272 267 266 266 266 265 263 262 261 260 262
315 318 321 323 326 329 331 332 333 336 338 340 339 338 338 337 337 339 341 343 344 345 345 345 346 348 349 348 347 347 347 347 347 348 349 348 347 346 344 343 342 341 339 338 337 335 335 333 331 330 328 326 322 319 315 311 308 307 307 308 311 315 319 318 313 305 299 295 291 290 290 288 286 281 271 266 265 264 263 262 261 260 261 261 261
312 315 318 320 323 326 328 328 330 331 334 336 335 335 335 333 332 335 339 341 342 343 343 343 344 346 348 348 346 346 346 346 346 347 347 347 347 346 344 343 342 341 339 337 336 334 334 334 333 332 331 329 327 325 322 317 311 309 309 307 310 316 320 319 315 307 301 297 293 290 290 289 287 282 272 266 264 263 262 262 262 263 264 264 262
307 311 314 317 319 322 324 325 326 328 330 332 331 332 333 330 329 332 336 339 340 341 341 341 342 345 346 346 346 345 345 345 346 346 347 346 346 345 344 343 342 341 339 337 335 334 334 334 333 333 332 331 330 329 328 323 318 312 306 303 310 318 320 320 317 310 304 298 293 290 289 288 286 283 276 268 264 263 262 262 263 265 266 267 265
302 305 309 312 315 318 319 321 322 324 326 327 327 329 330 329 328 330 334 337 338 339 340 341 342 343 345 345 345 344 344 344 344 345 346 346 345 344 344 343 343 341 339 337 335 334 335 335 334 335 334 332 330 328 327 325 320 312 304 304 312 319 323 327 328 325 318 309 299 292 288 285 284 282 279 273 266 263 262 262 264 266 268 268 267
297 301 304 308 311 313 315 317 318 320 322 323 323 325 327 327 326 329 333 335 337 338 339 341 341 343 344 344 344 343 342 342 343 344 345 345 345 344 343 343 343 342 339 337 336 335 336 337 337 338 337 334 330 327 324 321 317 313 309 309 314 322 330 335 337 336 333 326 316 305 295 288 283 281 280 276 271 266 264 264 265 267 269 268 267
293 297 301 304 307 309 311 313 314 317 318 319 320 321 323 324 325 328 332 334 336 337 339 340 341 342 343 343 342 341 340 340 341 342 343 344 344 343 343 343 343 342 340 339 338 338 338 340 341 340 338 335 330 326 323 319 315 311 309 310 316 327 337 339 340 338 335 331 326 317 306 297 290 285 280 277 274 270 267 266 267 268 269 269 268
293 296 300 302 304 306 308 309 311 314 315 316 317 318 320 322 324 327 330 332 334 336 338 339 340 341 341 341 340 339 338 338 338 340 341 342 343 343 343 343 342 341 341 341 342 343 342 343 343 340 337 334 332 330 326 320 315 313 313 315 322 334 340 341 339 336 333 330 327 320 311 302 295 291 286 280 276 273 270 268 268 268 269 269 269
292 295 298 300 301 303 305 306 308 310 313 314 314 316 318 320 323 327 329 330 333 335 337 337 338 339 339 339 338 337 336 335 336 337 339 341 344 344 343 343 342 340 341 343 346 348 347 345 342 339 336 334 335 334 330 324 319 319 321 322 325 333 337 335 332 332 331 329 326 320 313 303 295 291 288 284 279 275 272 270 269 269 269 270 270
291 294 296 298 299 301 302 303 305 308 311 312 312 314 317 319 322 326 328 329 331 334 335 336 337 337 337 336 335 334 333 333 334 334 337 341 345 345 344 343 340 339 341 344 348 350 350 347 342 337 335 336 337 338 335 330 325 324 328 330 330 331 331 329 328 330 329 327 325 321 315 306 297 289 286 284 281 277 274 271 270 270 271 271 271
290 292 294 295 296 299 300 300 302 306 310 310 311 312 315 319 321 325 327 329 330 333 334 334 335 335 335 333 332 332 331 330 331 331 334 341 346 346 345 342 340 339 342 345 348 350 351 348 344 340 338 339 339 340 340 335 330 332 337 338 337 334 332 331 332 331 329 327 326 323 319 311 301 291 284 280 278 276 275 273 272 271 270 270 270
289 290 291 293 295 297 298 298 299 304 308 309 310 311 313 317 320 323 326 328 330 331 331 332 334 333 332 331 330 329 329 328 328 329 333 342 347 346 345 343 340 340 342 345 347 350 350 348 347 345 343 342 341 341 342 342 340 339 340 339 340 339 337 336 336 334 331 330 328 326 323 317 307 295 285 279 274 273 273 272 271 270 269 268 268
286 287 290 293 294 295 296 296 299 303 305 307 309 310 312 315 318 321 324 327 329 330 329 331 332 331 330 329 328 328 327 327 327 328 334 342 345 345 345 343 341 340 342 344 345 347 348 349 350 349 347 345 344 344 345 343 339 337 338 340 342 341 338 336 337 336 334 332 330 328 326 320 311 301 292 284 278 274 272 270 269 267 267 266 267
285 287 290 292 293 293 294 296 299 302 303 306 308 309 310 313 316 319 323 326 328 327 327 329 330 330 329 328 329 330 329 329 329 328 333 338 340 342 344 343 341 339 341 343 344 345 347 349 350 350 349 347 347 347 345 342 337 337 341 343 343 341 339 336 337 337 335 334 331 329 327 322 313 303 295 288 283 280 276 273 270 269 268 268 268
285 286 288 290 291 291 292 295 298 300 302 305 307 308 309 312 315 317 320 324 325 324 325 327 329 329 329 331 335 338 335 331 328 326 328 330 333 337 341 341 339 338 338 341 342 343 345 347 347 348 348 346 344 341 339 340 341 342 343 343 342 341 339 336 336 337 336 335 332 330 328 324 314 303 294 287 283 281 278 275 274 272 272 271 271
284 285 287 289 290 290 291 294 296 298 301 304 306 307 309 311 313 315 318 321 322 322 323 325 328 329 331 336 343 341 329 322 320 319 320 323 327 331 334 336 336 335 335 338 340 340 341 344 344 344 343 340 338 335 334 339 344 345 343 343 341 340 338 336 335 336 336 335 333 330 327 324 317 305 297 290 284 280 277 275 274 273 272 272 272
282 284 286 287 287 288 290 293 295 297 299 303 305 306 308 310 311 313 315 317 318 319 321 324 326 328 332 336 336 326 318 315 313 311 312 316 322 326 328 330 331 330 331 335 338 337 338 340 341 341 340 336 334 333 335 339 344 344 343 342 341 339 338 336 335 335 336 337 335 331 326 324 319 308 301 296 289 282 278 276 275 274 273 273 272
282 283 284 284 286 288 290 292 294 295 298 302 303 305 307 308 309 311 312 313 314 316 318 321 325 327 326 319 312 312 311 307 304 307 310 312 317 321 323 324 325 326 327 332 335 335 335 337 338 339 340 336 333 333 336 340 343 343 342 342 341 340 339 337 335 336 337 336 334 331 325 321 318 310 303 301 295 287 282 279 277 276 275 274 273
280 281 282 284 286 288 290 291 293 295 299 301 302 303 305 306 307 308 309 310 311 313 316 317 320 322 316 301 297 304 304 297 300 308 310 312 315 317 318 319 320 322 326 330 332 332 333 335 336 337 337 335 333 334 337 341 343 342 341 341 341 341 340 338 336 336 336 334 332 329 324 319 316 310 304 301 299 295 290 286 284 281 278 276 274
280 281 282 284 286 287 289 291 293 296 298 299 300 302 304 304 305 306 306 307 309 311 313 314 315 318 316 304 297 300 300 298 302 306 308 311 312 312 313 315 317 321 326 329 330 330 332 334 334 335 335 335 335 338 341 343 343 342 341 341 341 341 339 338 337 336 335 332 330 327 323 317 313 308 302 299 297 295 293 291 290 289 287 284 282
280 281 283 284 285 287 288 291 293 295 296 297 299 300 302 302 303 304 303 305 307 308 310 311 311 315 317 310 303 301 300 299 302 305 305 308 310 311 312 314 317 322 327 329 329 329 331 332 333 334 334 335 338 340 341 342 342 341 341 340 340 340 339 337 337 335 333 331 328 327 323 317 313 308 301 298 296 295 294 294 293 292 290 288 286
280 281 283 284 285 286 289 290 292 293 294 296 297 299 300 301 302 302 301 303 306 307 308 309 310 313 314 310 306 304 301 298 302 304 303 305 309 311 313 315 319 325 328 329 328 329 330 330 331 333 334 335 336 338 340 341 341 341 340 340 340 339 338 336 336 334 332 330 328 326 322 317 313 309 304 301 298 296 294 292 291 289 288 287 286
280 281 283 284 285 287 289 290 291 292 293 294 296 298 299 300 300 299 300 303 305 305 306 307 309 311 312 307 304 304 301 299 301 304 304 305 308 310 313 317 322 326 328 328 329 330 329 329 330 332 333 334 334 337 339 341 341 341 340 339 339 338 337 336 335 334 332 329 327 325 321 317 313 310 306 302 299 295 293 291 290 289 287 287 286
279 281 282 284 286 287 288 289 290 291 292 293 295 297 297 297 297 297 299 302 303 303 306 307 308 309 310 307 303 303 303 302 303 304 303 305 307 310 315 320 323 325 327 328 330 330 329 329 330 331 332 333 333 336 339 341 341 341 339 338 338 338 337 336 335 334 332 329 327 324 320 316 312 309 305 302 298 296 294 293 291 290 289 288 287
278 280 281 283 285 286 287 288 289 290 292 292 294 295 295 295 295 296 298 300 301 302 305 307 307 308 308 306 304 304 305 305 304 303 302 304 307 311 317 322 324 325 326 328 330 330 329 329 330 330 331 333 334 337 340 341 341 340 339 338 337 337 337 336 334 333 332 329 326 323 319 315 312 309 306 302 299 296 295 293 292 291 290 290 289
Height
10966 10965 10964 10963 10962 10961 10960 10959 10958 10957 10956 10956 10955 10954 10954 10953 10952 10952 10951 10950 10949 10947 10946 10945 10944 10943 10943 10942 10941 10940 10940 10939 10939 10938 10937 10936 10935 10934 10933 10932 10931 10929 10929 10928 10927 10925 10924 10924 10924 10925 10925 10925 10926 10926 10927 10927 10927 10927 10927 10928 10928 10927 10927 10928 10928 10928 10928 10928 10928 10928 10928 10928 10928 10929 10929 10929 10929 10929 10929 10929 10929 10929 10929 10929 10929
10968 10967 10966 10965 10964 10963 10962 10961 10960 10958 10957 10957 10956 10955 10954 10953 10952 10952 10951 10951 10950 10949 10947 10946 10945 10944 10944 10943 10942 10942 10941 10940 10939 10939 10938 10936 10936 10935 10933 10932 10931 10930 10929 10928 10927 10926 10925 10924 10924 10924 10923 10924 10925 10925 10926 10926 10927 10927 10927 10927 10927 10927 10927 10927 10927 10927 10927 10927 10927 10927 10927 10927 10927 10927 10928 10928 10928 10928 10928 10928 10928 10928 10928 10928 10928
10969 10968 10968 10967 10965 10964 10964 10963 10961 10960 10959 10958 10957 10956 10955 10954 10953 10952 10951 10951 10950 10949 10948 10947 10946 10945 10945 10944 10944 10943 10942 10941 10940 10939 10938 10937 10936 10935 10934 10933 10932 10931 10930 10928 10927 10926 10926 10925 10924 10923 10923 10923 10923 10924 10925 10925 10926 10926 10926 10926 10926 10926 10926 10926 10926 10927 10927 10926 10926 10926 10926 10926 10926 10926 10926 10926 10926 10926 10926 10927 10927 10927 10928 10928 10928
10971 10970 10969 10968 10967 10966 10965 10964 10963 10961 10960 10959 10958 10957 10955 10954 10953 10952 10952 10951 10950 10949 10949 10948 10947 10946 10946 10945 10945 10944 10943 10942 10941 10940 10939 10938 10937 10936 10935 10934 10932 10931 10930 10929 10928 10926 10926 10925 10924 10923 10922 10922 10922 10923 10924 10924 10924 10924 10925 10925 10925 10925 10925 10925 10926 10926 10926 10926 10926 10925 10925 10925 10925 10925 10925 10925 10925 10925 10925 10925 10926 10926 10926 10926 10927
10973 10972 10971 10970 10969 10968 10967 10966 10964 10963 10961 10960 10959 10958 10956 10955 10954 10953 10952 10951 10950 10949 10949 10948 10948 10947 10946 10946 10945 10944 10944 10943 10942 10941 10939 10938 10937 10936 10935 10934 10933 10931 10930 10929 10928 10926 10925 10924 10924 10923 10923 10922 10921 10922 10922 10922 10922 10923 10923 10923 10923 10924 10924 10924 10925 10925 10925 10925 10925 10924 10924 10923 10923 10923 10923 10923 10923 10923 10923 10924 10924 10924 10925 10925 10925
10974 10973 10972 10972 10970 10969 10969 10968 10966 10964 10963 10961 10960 10958 10957 10955 10954 10953 10952 10951 10950 10950 10949 10948 10948 10947 10947 10946 10945 10945 10944 10943 10942 10941 10940 10938 10937 10936 10935 10934 10933 10931 10930 10929 10927 10926 10925 10924 10923 10923 10922 10922 10921 10921 10920 10920 10920 10920 10921 10921 10921 10922 10923 10923 10923 10923 10923 10923 10923 10923 10923 10922 10921 10921 10922 10922 10922 10922 10923 10923 10923 10923 10923 10923 10923
10976 10975 10974 10973 10972 10971 10970 10969 10967 10965 10964 10962 10961 10959 10958 10956 10955 10954 10953 10952 10951 10950 10950 10949 10948 10947 10947 10946 10945 10945 10944 10943 10942 10941 10939 10938 10937 10936 10935 10934 10933 10931 10930 10929 10927 10926 10925 10924 10923 10923 10922 10921 10921 10920 10919 10919 10919 10919 10919 10919 10919 10919 10921 10921 10920 10920 10920 10921 10922 10921 10920 10920 10919 10920 10920 10920 10921 10921 10921 10922 10922 10922 10922 10922 10922
10977 10976 10975 10974 10973 10972 10971 10970 10968 10966 10964 10963 10962 10960 10958 10957 10956 10954 10953 10952 10952 10951 10950 10949 10948 10947 10946 10945 10945 10944 10943 10942 10941 10940 10939 10937 10936 10936 10935 10934 10932 10931 10930 10929 10927 10926 10925 10924 10923 10922 10921 10921 10920 10920 10919 10918 10918 10917 10917 10917 10916 10917 10918 10918 10918 10918 10918 10919 10919 10919 10918 10918 10918 10919 10919 10919 10919 10919 10919 10920 10920 10920 10920 10920 10921
10978 10977 10977 10975 10974 10973 10972 10971 10969 10967 10965 10964 10963 10961 10960 10958 10957 10956 10955 10954 10953 10951 10950 10949 10948 10947 10945 10944 10943 10943 10942 10941 10940 10939 10938 10936 10935 10935 10934 10933 10931 10930 10929 10928 10927 10926 10925 10923 10922 10921 10921 10920 10919 10919 10918 10917 10917 10916 10915 10915 10914 10914 10914 10915 10915 10915 10916 10916 10916 10917 10917 10917 10917 10917 10917 10916 10916 10917 10917 10918 10919 10919 10919 10919 10919
10979 10979 10978 10977 10976 10975 10973 10972 10970 10968 10967 10965 10964 10962 10961 10960 10959 10958 10957 10955 10954 10952 10951 10950 10949 10947 10946 10944 10943 10941 10941 10940 10939 10938 10937 10936 10934 10933 10932 10931 10930 10929 10928 10927 10926 10925 10924 10923 10922 10921 10920 10919 10918 10917 10916 10916 10915 10915 10914 10914 10913 10912 10912 10912 10912 10912 10913 10913 10914 10914 10914 10914 10915 10916 10915 10914 10914 10915 10915 10916 10916 10917 10917 10917 10917
10980 10980 10979 10978 10977 10976 10974 10972 10970 10968 10967 10966 10964 10963 10962 10960 10960 10959 10957 10956 10954 10953 10952 10950 10949 10947 10946 10945 10943 10941 10940 10939 10938 10937 10936 10935 10933 10932 10931 10929 10928 10927 10926 10925 10924 10923 10922 10922 10921 10920 10919 10918 10917 10916 10915 10914 10914 10913 10912 10912 10911 10911 10910 10910 10910 10909 10909 10910 10911 10911 10911 10911 10912 10913 10912 10911 10911 10913 10913 10913 10913 10914 10914 10915 10915
10981 10980 10979 10978 10977 10976 10975 10972 10970 10969 10967 10966 10964 10963 10962 10961 10960 10959 10957 10956 10955 10953 10951 10950 10949 10947 10946 10945 10944 10942 10940 10939 10938 10936 10935 10934 10933 10931 10930 10929 10927 10926 10925 10924 10922 10921 10920 10919 10919 10918 10917 10917 10916 10915 10914 10913 10912 10911 10910 10910 10909 10909 10909 10908 10907 10907 10907 10907 10908 10908 10908 10908 10908 10908 10908 10908 10909 10910 10910 10910 10910 10911 10911 10912 10912
10982 10981 10980 10979 10978 10976 10974 10972 10970 10969 10967 10966 10964 10963 10962 10962 10961 10959 10958 10956 10955 10953 10952 10950 10949 10947 10946 10944 10943 10942 10941 10939 10938 10936 10935 10933 10932 10930 10929 10927 10926 10925 10924 10922 10920 10919 10918 10917 10916 10915 10915 10915 10914 10913 10912 10911 10910 10909 10908 10907 10907 10907 10906 10906 10905 10905 10905 10905 10905 10905 10905 10905 10905 10904 10904 10904 10905 10906 10906 10907 10907 10908 10908 10908 10909
10982 10981 10980 10979 10978 10976 10974 10972 10971 10969 10968 10966 10965 10964 10964 10963 10961 10960 10959 10957 10955 10954 10952 10950 10948 10947 10945 10944 10943 10941 10940 10939 10938 10936 10934 10933 10931 10929 10927 10925 10924 10923 10922 10920 10919 10917 10915 10914 10913 10913 10912 10912 10911 10911 10911 10910 10909 10908 10907 10905 10904 10904 10904 10903 10903 10902 10902 10902 10902 10902 10902 10902 10902 10901 10900 10900 10900 10901 10902 10902 10903 10904 10904 10905 10906
10982 10981 10980 10979 10977 10976 10974 10972 10971 10970 10969 10968 10967 10966 10965 10964 10962 10961 10960 10958 10957 10955 10952 10950 10948 10946 10945 10943 10942 10941 10939 10938 10936 10935 10933 10931 10929 10927 10926 10924 10922 10920 10919 10918 10917 10915 10913 10912 10911 10910 10910 10910 10909 10908 10908 10907 10907 10906 10905 10904 10903 10901 10901 10900 10900 10899 10899 10899 10899 10899 10898 10898 10898 10898 10897 10897 10897 10897 10897 10897 10898 10899 10899 10900 10902
10981 10980 10980 10978 10977 10976 10974 10973 10972 10971 10971 10970 10968 10967 10966 10965 10963 10962 10960 10959 10958 10955 10952 10950 10948 10946 10945 10943 10941 10940 10938 10937 10935 10933 10932 10930 10928 10927 10925 10923 10921 10919 10917 10916 10914 10913 10911 10910 10909 10909 10908 10907 10907 10906 10905 10904 10904 10903 10903 10902 10901 10900 10899 10897 10897 10896 10896 10896 10895 10895 10895 10895 10894 10894 10894 10894 10893 10893 10893 10893 10893 10893 10894 10895 10897
10981 10980 10979 10978 10977 10976 10975 10974 10973 10972 10972 10971 10970 10968 10967 10966 10964 10963 10961 10960 10958 10955 10953 10950 10948 10947 10945 10943 10941 10939 10937 10936 10934 10932 10931 10930 10928 10926 10924 10923 10921 10919 10916 10914 10912 10911 10910 10909 10908 10907 10906 10905 10904 10903 10902 10902 10901 10900 10900 10899 10899 10898 10897 10895 10894 10893 10893 10892 10892 10891 10891 10891 10891 10890 10890 10890 10890 10890 10890 10889 10889 10889 10889 10890 10891
10981 10980 10979 10978 10977 10976 10975 10974 10974 10974 10973 10972 10970 10969 10968 10966 10965 10963 10962 10960 10958 10956 10954 10951 10949 10947 10945 10943 10940 10939 10937 10935 10934 10932 10931 10929 10927 10926 10924 10922 10920 10918 10916 10913 10911 10909 10908 10908 10907 10906 10905 10904 10902 10901 10900 10899 10898 10897 10896 10896 10895 10894 10894 10893 10891 10890 10889 10889 10888 10888 10887 10887 10887 10886 10886 10886 10886 10886 10886 10886 10885 10885 10884 10884 10885
10980 10979 10979 10978 10977 10976 10975 10975 10975 10974 10973 10972 10971 10969 10968 10966 10965 10964 10962 10960 10958 10956 10954 10952 10950 10947 10945 10943 10940 10938 10937 10935 10933 10932 10930 10929 10927 10925 10923 10921 10919 10917 10915 10913 10910 10908 10907 10906 10905 10904 10903 10902 10900 10899 10897 10896 10894 10893 10892 10892 10891 10890 10889 10889 10888 10887 10886 10885 10884 10884 10883 10883 10882 10882 10882 10881 10881 10882 10882 10882 10881 10881 10880 10880 10880
10980 10979 10978 10977 10976 10976 10975 10975 10975 10974 10973 10972 10970 10969 10968 10966 10965 10963 10961 10960 10958 10957 10955 10953 10951 10948 10946 10943 10941 10939 10937 10936 10934 10932 10930 10928 10926 10924 10921 10919 10918 10916 10914 10912 10910 10908 10906 10904 10903 10902 10900 10899 10898 10896 10894 10893 10891 10890 10889 10888 10887 10886 10885 10885 10884 10883 10882 10881 10880 10879 10878 10878 10878 10877 10877 10877 10876 10877 10877 10877 10877 10877 10876 10876 10876
10979 10979 10978 10977 10976 10976 10975 10975 10974 10973 10972 10971 10970 10968 10967 10966 10964 10963 10961 10960 10959 10957 10955 10953 10951 10948 10946 10944 10942 10940 10938 10936 10934 10932 10930 10928 10926 10923 10920 10918 10916 10915 10913 10911 10910 10908 10905 10903 10901 10899 10897 10896 10895 10893 10891 10889 10888 10886 10885 10884 10883 10882 10881 10880 10879 10879 10878 10877 10876 10875 10874 10873 10873 10872 10872 10872 10872 10872 10872 10872 10872 10872 10872 10871 10871
10979 10978 10977 10976 10976 10975 10975 10974 10973 10972 10971 10970 10969 10968 10966 10965 10964 10963 10961 10960 10959 10957 10955 10953 10950 10948 10945 10943 10941 10939 10938 10936 10934 10931 10929 10926 10925 10923 10920 10918 10916 10913 10911 10909 10907 10905 10903 10901 10899 10897 10895 10893 10891 10890 10888 10886 10884 10883 10881 10880 10879 10877 10876 10876 10875 10874 10873 10872 10871 10870 10869 10868 10868 10867 10867 10867 10867 10867 10867 10867 10866 10866 10866 10866 10866
10978 10977 10976 10976 10975 10975 10974 10973 10972 10971 10970 10969 10968 10967 10965 10964 10963 10962 10961 10959 10958 10956 10953 10952 10950 10947 10945 10943 10940 10938 10936 10935 10933 10931 10928 10926 10923 10921 10919 10917 10914 10912 10910 10907 10905 10903 10901 10899 10897 10895 10892 10890 10888 10886 10884 10882 10880 10879 10877 10876 10875 10873 10872 10871 10870 10869 10868 10867 10866 10865 10864 10863 10863 10862 10862 10861 10861 10861 10861 10861 10860 10860 10860 10860 10860
10976 10976 10975 10975 10974 10974 10973 10972 10971 10970 10969 10968 10967 10965 10964 10963 10962 10961 10959 10958 10956 10954 10952 10950 10949 10947 10944 10942 10940 10937 10935 10933 10932 10930 10928 10925 10922 10920 10917 10915 10912 10909 10907 10905 10903 10901 10898 10896 10894 10892 10889 10887 10884 10882 10880 10878 10876 10874 10872 10871 10869 10868 10867 10866 10865 10864 10863 10862 10861 10860 10859 10858 10857 10856 10856 10855 10855 10855 10854 10854 10854 10853 10853 10853 10853
10975 10974 10974 10974 10973 10972 10971 10970 10969 10968 10968 10967 10965 10964 10963 10962 10961 10959 10957 10956 10954 10953 10951 10949 10947 10945 10943 10941 10939 10936 10934 10931 10929 10927 10925 10923 10921 10918 10915 10912 10910 10907 10904 10902 10900 10897 10895 10893 10890 10888 10885 10882 10880 10877 10875 10872 10871 10869 10867 10866 10865 10864 10862 10861 10859 10858 10857 10856 10854 10853 10852 10852 10851 10850 10849 10849 10848 10847 10847 10847 10847 10847 10847 10847 10847
10973 10973 10972 10972 10971 10971 10970 10969 10968 10967 10966 10965 10964 10962 10961 10960 10959 10957 10956 10954 10953 10951 10949 10947 10946 10944 10942 10940 10937 10935 10932 10929 10927 10924 10921 10919 10917 10914 10912 10909 10906 10903 10901 10898 10896 10893 10891 10888 10886 10883 10881 10878 10875 10872 10870 10867 10866 10864 10863 10862 10860 10859 10858 10856 10855 10853 10852 10850 10849 10847 10846 10845 10844 10843 10842 10841 10841 10840 10840 10840 10840 10840 10840 10840 10840
10972 10971 10971 10970 10969 10969 10968 10967 10966 10965 10964 10963 10962 10960 10959 10958 10957 10955 10954 10952 10951 10949 10947 10945 10944 10942 10941 10938 10935 10933 10930 10927 10924 10921 10918 10915 10912 10910 10907 10905 10902 10899 10897 10894 10891 10889 10886 10884 10881 10878 10876 10873 10870 10867 10865 10863 10861 10860 10859 10858 10856 10855 10853 10852 10850 10848 10846 10844 10843 10841 10839 10838 10837 10836 10835 10834 10834 10834 10833 10833 10833 10833 10834 10834 10834
10971 10970 10969 10968 10967 10967 10966 10965 10964 10964 10963 10961 10960 10958 10957 10956 10954 10953 10952 10951 10949 10947 10945 10943 10941 10940 10939 10937 10934 10931 10927 10924 10921 10918 10915 10912 10909 10906 10903 10901 10898 10895 10892 10889 10887 10885 10882 10879 10876 10873 10870 10867 10865 10862 10860 10858 10856 10855 10854 10853 10852 10850 10849 10847 10844 10842 10840 10838 10836 10834 10833 10832 10831 10830 10829 10828 10828 10827 10827 10827 10827 10827 10827 10827 10827
10969 10968 10967 10966 10966 10965 10964 10963 10962 10961 10960 10959 10958 10956 10955 10954 10952 10950 10950 10949 10947 10945 10943 10941 10939 10937 10935 10934 10931 10928 10925 10922 10919 10915 10912 10909 10906 10903 10900 10897 10895 10892 10888 10885 10883 10880 10878 10875 10872 10869 10866 10863 10860 10858 10855 10853 10852 10851 10850 10849 10848 10846 10844 10841 10838 10835 10833 10831 10829 10828 10827 10825 10824 10824 10823 10822 10821 10821 10820 10820 10820 10820 10820 10820 10820
10967 10966 10966 10965 10964 10963 10962 10961 10960 10959 10958 10957 10955 10954 10953 10951 10949 10948 10948 10947 10945 10943 10941 10938 10936 10934 10932 10930 10927 10925 10922 10919 10916 10913 10910 10906 10903 10900 10897 10894 10891 10888 10885 10882 10879 10876 10874 10870 10867 10864 10862 10859 10857 10854 10852 10849 10848 10847 10846 10845 10843 10842 10839 10836 10832 10830 10827 10825 10823 10822 10821 10820 10818 10817 10816 10815 10815 10814 10814 10814 10814 10814 10814 10814 10814
10964 10964 10964 10963 10962 10961 10959 10958 10958 10957 10956 10955 10953 10952 10951 10949 10947 10946 10946 10945 10943 10941 10939 10936 10933 10931 10928 10926 10923 10921 10919 10916 10913 10910 10907 10904 10900 10897 10894 10891 10888 10885 10882 10879 10876 10873 10871 10867 10864 10860 10858 10855 10853 10850 10848 10846 10844 10842 10842 10840 10839 10837 10834 10831 10828 10825 10823 10821 10819 10817 10816 10815 10813 10812 10810 10809 10808 10807 10807 10807 10807 10807 10807 10806 10806
10962 10961 10961 10960 10960 10959 10957 10956 10955 10954 10954 10953 10951 10950 10948 10947 10945 10944 10943 10942 10940 10938 10936 10933 10931 10928 10925 10922 10920 10917 10915 10912 10910 10907 10904 10901 10897 10894 10891 10888 10886 10882 10879 10876 10872 10869 10866 10863 10860 10857 10854 10851 10848 10846 10844 10841 10840 10838 10837 10836 10834 10832 10829 10827 10825 10822 10820 10817 10815 10813 10811 10810 10808 10806 10804 10802 10801 10800 10800 10800 10799 10799 10799 10799 10799
10959 10959 10958 10958 10957 10956 10955 10954 10953 10952 10952 10951 10949 10948 10946 10944 10943 10942 10941 10939 10937 10934 10932 10930 10927 10924 10921 10918 10916 10913 10910 10908 10906 10903 10900 10897 10894 10891 10888 10886 10883 10880 10876 10872 10869 10865 10861 10858 10855 10851 10848 10846 10843 10840 10838 10836 10834 10833 10832 10830 10829 10826 10824 10822 10820 10818 10816 10813 10810 10808 10806 10804 10802 10799 10797 10795 10794 10793 10793 10792 10791 10790 10790 10790 10790
10957 10956 10955 10955 10954 10953 10952 10951 10950 10949 10949 10948 10947 10946 10944 10942 10941 10940 10938 10936 10934 10932 10929 10926 10924 10921 10918 10915 10912 10909 10906 10904 10902 10900 10897 10893 10890 10887 10885 10882 10880 10877 10874 10870 10866 10861 10857 10853 10849 10845 10842 10840 10838 10835 10832 10830 10828 10826 10825 10824 10822 10820 10818 10815 10814 10812 10810 10807 10804 10802 10799 10796 10794 10791 10789 10788 10786 10785 10785 10784 10783 10782 10782 10782 10781
10954 10953 10953 10952 10951 10950 10949 10948 10947 10946 10946 10945 10944 10943 10942 10940 10939 10937 10936 10934 10932 10930 10927 10923 10920 10917 10914 10911 10908 10905 10903 10900 10898 10896 10893 10890 10886 10883 10881 10879 10876 10874 10871 10867 10863 10859 10854 10849 10844 10840 10837 10834 10832 10830 10827 10824 10822 10821 10820 10819 10817 10815 10812 10809 10807 10805 10802 10799 10797 10794 10792 10789 10786 10783 10781 10779 10778 10777 10776 10775 10774 10773 10773 10773 10772
10950 10950 10949 10948 10948 10947 10946 10945 10943 10943 10942 10942 10941 10940 10939 10938 10936 10935 10933 10931 10929 10928 10924 10921 10917 10914 10911 10907 10904 10901 10899 10896 10893 10891 10888 10885 10882 10879 10877 10874 10872 10869 10865 10861 10858 10854 10850 10846 10841 10837 10834 10831 10828 10825 10823 10821 10819 10818 10818 10818 10816 10813 10809 10805 10802 10798 10795 10792 10789 10786 10783 10780 10777 10774 10772 10770 10769 10768 10767 10766 10765 10765 10764 10763 10762
10947 10947 10946 10945 10944 10944 10943 10941 10940 10939 10939 10938 10938 10937 10936 10935 10933 10932 10931 10929 10927 10924 10922 10918 10914 10911 10907 10904 10901 10898 10895 10892 10888 10886 10883 10881 10878 10875 10872 10869 10866 10863 10859 10854 10851 10848 10845 10842 10838 10834 10831 10828 10825 10823 10821 10819 10818 10817 10816 10814 10811 10807 10803 10800 10796 10792 10787 10784 10780 10777 10774 10771 10768 10765 10763 10761 10760 10759 10758 10757 10756 10756 10755 10753 10752
10944 10943 10942 10941 10940 10940 10939 10937 10936 10936 10935 10935 10935 10934 10933 10932 10930 10929 10928 10926 10924 10921 10918 10915 10912 10908 10903 10900 10896 10893 10890 10887 10884 10881 10879 10876 10873 10870 10867 10864 10861 10857 10853 10848 10845 10842 10840 10837 10834 10831 10828 10826 10824 10821 10818 10816 10814 10813 10811 10808 10804 10799 10794 10791 10789 10786 10781 10775 10770 10767 10765 10761 10758 10755 10753 10752 10751 10750 10749 10748 10747 10746 10745 10743 10741
10940 10939 10938 10937 10937 10935 10934 10933 10933 10932 10931 10931 10931 10930 10929 10928 10926 10926 10925 10923 10920 10917 10914 10912 10909 10905 10900 10896 10891 10888 10884 10881 10879 10877 10874 10870 10868 10865 10862 10860 10857 10854 10849 10844 10840 10838 10837 10834 10831 10828 10825 10823 10821 10819 10816 10814 10811 10809 10805 10801 10796 10792 10787 10782 10779 10776 10772 10766 10761 10757 10754 10751 10747 10745 10742 10741 10741 10741 10740 10739 10737 10736 10734 10732 10730
10935 10935 10934 10933 10932 10931 10930 10929 10929 10928 10927 10927 10927 10926 10925 10924 10923 10922 10921 10919 10917 10913 10910 10908 10905 10901 10897 10892 10887 10882 10878 10875 10873 10872 10869 10865 10863 10861 10858 10855 10853 10851 10846 10841 10838 10835 10833 10831 10828 10825 10822 10820 10817 10815 10813 10811 10807 10803 10798 10792 10787 10783 10778 10774 10771 10768 10763 10757 10751 10746 10744 10741 10737 10734 10732 10729 10729 10729 10728 10727 10726 10724 10722 10721 10720
10930 10930 10929 10929 10927 10926 10925 10925 10925 10924 10923 10924 10923 10922 10921 10921 10919 10917 10916 10915 10913 10909 10906 10904 10902 10897 10892 10888 10882 10877 10874 10871 10869 10867 10864 10862 10859 10857 10854 10852 10850 10848 10844 10839 10835 10832 10829 10827 10825 10822 10819 10816 10814 10811 10808 10806 10801 10795 10789 10784 10778 10773 10768 10764 10762 10761 10757 10750 10742 10736 10733 10732 10728 10724 10721 10719 10718 10718 10716 10714 10713 10712 10710 10709 10707
10925 10925 10925 10924 10923 10921 10921 10921 10921 10920 10919 10920 10919 10918 10917 10917 10916 10913 10912 10911 10909 10905 10903 10901 10898 10893 10888 10883 10879 10876 10873 10869 10867 10864 10861 10859 10856 10853 10851 10849 10847 10845 10842 10837 10833 10830 10826 10823 10821 10819 10816 10812 10810 10807 10804 10801 10795 10789 10784 10779 10773 10767 10762 10757 10752 10751 10750 10745 10736 10727 10722 10722 10720 10715 10711 10709 10707 10706 10704 10702 10701 10700 10698 10697 10695
10920 10920 10920 10919 10917 10916 10916 10917 10917 10915 10915 10916 10915 10913 10913 10912 10911 10910 10908 10906 10904 10902 10899 10897 10894 10889 10884 10881 10878 10875 10872 10868 10865 10862 10859 10855 10853 10850 10848 10847 10845 10843 10840 10835 10831 10828 10824 10820 10818 10815 10812 10808 10805 10803 10799 10794 10789 10785 10781 10776 10771 10765 10759 10752 10745 10741 10738 10735 10729 10721 10712 10710 10711 10708 10702 10700 10698 10695 10693 10691 10689 10688 10686 10684 10683
10915 10916 10914 10913 10911 10911 10911 10911 10911 10910 10911 10911 10910 10909 10908 10907 10906 10905 10903 10901 10900 10898 10895 10894 10891 10886 10882 10879 10876 10873 10869 10865 10863 10861 10856 10852 10851 10848 10845 10845 10844 10841 10837 10832 10828 10825 10821 10817 10813 10810 10808 10804 10800 10797 10793 10788 10783 10779 10774 10770 10764 10758 10752 10745 10737 10730 10725 10720 10718 10713 10704 10699 10699 10698 10692 10689 10688 10685 10682 10679 10677 10675 10673 10671 10670
10910 10910 10909 10907 10906 10905 10905 10905 10905 10905 10906 10906 10905 10904 10903 10902 10901 10901 10898 10895 10894 10893 10892 10890 10887 10883 10880 10877 10875 10872 10868 10864 10862 10859 10854 10850 10848 10846 10844 10843 10842 10839 10834 10829 10824 10820 10817 10814 10810 10806 10803 10799 10795 10790 10785 10780 10774 10769 10764 10759 10754 10748 10742 10735 10728 10721 10717 10712 10708 10705 10697 10689 10687 10686 10680 10676 10674 10671 10668 10665 10664 10662 10660 10658 10656
10903 10904 10903 10902 10901 10899 10899 10899 10900 10900 10900 10900 10899 10898 10898 10896 10894 10894 10893 10890 10889 10889 10887 10885 10882 10880 10879 10877 10874 10871 10867 10863 10860 10857 10852 10848 10846 10843 10841 10840 10838 10835 10831 10825 10820 10816 10812 10809 10805 10800 10796 10792 10787 10781 10774 10769 10764 10759 10754 10749 10743 10738 10732 10726 10719 10712 10708 10704 10701 10697 10690 10681 10676 10674 10669 10663 10661 10657 10652 10649 10648 10646 10644 10642 10640
10896 10897 10897 10897 10895 10893 10893 10894 10895 10894 10894 10893 10893 10892 10892 10890 10888 10887 10886 10884 10884 10883 10882 10879 10877 10876 10875 10873 10870 10867 10863 10860 10858 10854 10849 10846 10843 10840 10838 10836 10834 10831 10827 10821 10816 10812 10807 10803 10799 10794 10789 10785 10779 10773 10767 10762 10757 10752 10748 10742 10735 10729 10723 10717 10710 10703 10697 10693 10690 10687 10682 10672 10666 10663 10657 10651 10648 10642 10635 10632 10632 10630 10628 10626 10624
10890 10890 10891 10890 10888 10887 10888 10889 10889 10888 10887 10887 10887 10886 10885 10884 10882 10880 10878 10878 10878 10877 10875 10873 10871 10871 10869 10866 10863 10862 10859 10856 10854 10850 10846 10842 10839 10836 10834 10831 10828 10825 10822 10817 10811 10807 10802 10797 10793 10788 10783 10779 10774 10768 10762 10756 10751 10745 10740 10735 10729 10723 10717 10710 10702 10696 10689 10682 10676 10673 10668 10660 10654 10650 10644 10637 10632 10626 10619 10616 10616 10614 10613 10611 10609
10884 10884 10883 10883 10882 10882 10883 10883 10882 10881 10880 10880 10880 10879 10878 10877 10875 10872 10870 10872 10872 10869 10868 10866 10863 10863 10863 10859 10856 10855 10853 10850 10847 10844 10841 10838 10834 10832 10829 10826 10822 10819 10816 10811 10806 10801 10796 10792 10788 10784 10779 10774 10769 10764 10758 10750 10744 10738 10732 10727 10721 10715 10709 10702 10695 10688 10680 10671 10664 10659 10654 10646 10639 10634 10630 10623 10617 10611 10604 10600 10599 10597 10597 10596 10594
10878 10877 10876 10876 10876 10876 10875 10875 10874 10873 10872 10872 10872 10871 10870 10869 10867 10865 10864 10865 10864 10862 10861 10859 10856 10854 10855 10852 10849 10848 10846 10843 10840 10838 10836 10834 10830 10828 10824 10820 10817 10813 10809 10805 10800 10796 10791 10786 10782 10779 10775 10770 10764 10758 10751 10743 10737 10731 10725 10719 10712 10706 10699 10691 10685 10678 10670 10661 10654 10647 10641 10633 10625 10620 10617 10612 10605 10596 10589 10585 10582 10579 10579 10580 10579
10872 10870 10870 10870 10869 10868 10867 10866 10866 10865 10865 10864 10864 10863 10862 10860 10858 10857 10856 10857 10856 10854 10853 10852 10849 10846 10846 10845 10842 10841 10840 10836 10833 10832 10831 10830 10827 10823 10819 10815 10811 10807 10802 10798 10794 10789 10785 10781 10776 10772 10768 10764 10758 10751 10744 10736 10730 10724 10718 10711 10704 10697 10690 10682 10675 10668 10660 10652 10644 10636 10629 10621 10613 10607 10603 10600 10594 10585 10576 10571 10567 10564 10564 10565 10565